Time,TemperatureF,DewpointF,PressureIn,WindDirection,WindDirectionDegrees,WindSpeedMPH,WindSpeedGustMPH,Humidity,HourlyPrecipIn,Conditions,Clouds,dailyrainin,SolarRadiationWatts/m^2,SoftwareType,DateUTC
2013-09-17 00:03:00,60.3,55.8,29.83,SSW,196,8.9,12.1,85,0.00,,,0.00,0.0,meteobridge,2013-09-17 07:03:00,
2013-09-17 00:08:00,60.3,55.8,29.83,SW,228,8.9,16.1,85,0.00,,,0.00,0.0,meteobridge,2013-09-17 07:08:00,
2013-09-17 00:13:00,60.4,55.9,29.83,SW,233,4.0,11.0,85,0.00,,,0.00,0.0,meteobridge,2013-09-17 07:13:00,
2013-09-17 00:18:00,60.4,55.9,29.83,WSW,243,6.9,13.0,85,0.00,,,0.00,0.0,meteobridge,2013-09-17 07:18:00,
2013-09-17 00:23:00,60.4,55.9,29.83,SSW,206,8.9,14.1,85,0.00,,,0.00,0.0,meteobridge,2013-09-17 07:23:00,
2013-09-17 00:28:00,60.4,55.9,29.83,SW,223,6.0,13.0,85,0.00,,,0.00,0.0,meteobridge,2013-09-17 07:28:00,
2013-09-17 00:33:00,60.4,55.9,29.83,SSW,202,6.0,11.0,85,0.00,,,0.00,0.0,meteobridge,2013-09-17 07:33:00,
2013-09-17 00:38:00,60.4,55.9,29.83,SW,224,4.0,10.1,85,0.00,,,0.00,0.0,meteobridge,2013-09-17 07:38:00,
2013-09-17 00:43:00,60.6,56.1,29.83,SW,228,4.9,6.9,85,0.00,,,0.00,0.0,meteobridge,2013-09-17 07:43:00,
2013-09-17 00:48:00,60.6,56.1,29.83,SSW,199,6.0,8.1,85,0.00,,,0.00,0.0,meteobridge,2013-09-17 07:48:00,
2013-09-17 00:53:00,60.6,56.1,29.83,SW,233,6.0,10.1,85,0.00,,,0.00,0.0,meteobridge,2013-09-17 07:53:00,
2013-09-17 00:58:00,60.6,56.1,29.83,SE,146,4.9,8.9,85,0.00,,,0.00,0.0,meteobridge,2013-09-17 07:58:00,
2013-09-17 01:03:00,60.6,55.8,29.83,SSW,210,2.0,8.1,84,0.00,,,0.00,0.0,meteobridge,2013-09-17 08:03:00,
2013-09-17 01:08:00,60.6,55.8,29.83,SE,140,2.9,10.1,84,0.00,,,0.00,0.0,meteobridge,2013-09-17 08:08:00,
2013-09-17 01:13:00,60.6,55.8,29.83,SSW,197,6.0,15.0,84,0.00,,,0.00,0.0,meteobridge,2013-09-17 08:13:00,
2013-09-17 01:18:00,60.6,56.1,29.83,SW,217,6.0,8.9,85,0.00,,,0.00,0.0,meteobridge,2013-09-17 08:18:00,
2013-09-17 01:23:00,60.6,56.1,29.83,SSE,156,0.9,8.1,85,0.00,,,0.00,0.0,meteobridge,2013-09-17 08:23:00,
2013-09-17 01:28:00,60.6,56.1,29.83,SW,234,2.9,8.9,85,0.00,,,0.00,0.0,meteobridge,2013-09-17 08:28:00,
2013-09-17 01:33:00,60.6,56.1,29.83,SSW,205,4.0,11.0,85,0.00,,,0.00,0.0,meteobridge,2013-09-17 08:33:00,
2013-09-17 01:38:00,60.6,56.1,29.83,SSW,193,8.1,8.1,85,0.00,,,0.00,0.0,meteobridge,2013-09-17 08:38:00,
2013-09-17 01:43:00,60.6,56.1,29.83,SSW,206,6.0,11.0,85,0.00,,,0.00,0.0,meteobridge,2013-09-17 08:43:00,
2013-09-17 01:48:00,60.6,56.1,29.83,SSW,195,6.0,17.9,85,0.00,,,0.00,0.0,meteobridge,2013-09-17 08:48:00,
2013-09-17 01:53:00,60.6,56.1,29.83,SW,231,4.9,12.1,85,0.00,,,0.00,0.0,meteobridge,2013-09-17 08:53:00,
2013-09-17 01:58:00,60.6,56.1,29.83,WSW,247,4.0,8.1,85,0.00,,,0.00,0.0,meteobridge,2013-09-17 08:58:00,
2013-09-17 02:03:00,60.8,56.3,29.83,SSW,195,6.0,6.9,85,0.00,,,0.00,0.0,meteobridge,2013-09-17 09:03:00,
2013-09-17 02:08:00,60.8,56.3,29.83,SSE,165,4.0,4.0,85,0.00,,,0.00,0.0,meteobridge,2013-09-17 09:08:00,
2013-09-17 02:13:00,60.8,56.3,29.83,South,178,2.9,8.9,85,0.00,,,0.00,0.0,meteobridge,2013-09-17 09:13:00,
2013-09-17 02:18:00,61.0,56.5,29.83,SSW,210,0.9,4.9,85,0.00,,,0.00,0.0,meteobridge,2013-09-17 09:18:00,
2013-09-17 02:23:00,61.0,56.5,29.83,SE,143,2.9,6.0,85,0.00,,,0.00,0.0,meteobridge,2013-09-17 09:23:00,
2013-09-17 02:28:00,61.0,56.5,29.83,SSW,196,4.9,13.0,85,0.00,,,0.00,0.0,meteobridge,2013-09-17 09:28:00,
2013-09-17 02:33:00,61.0,56.5,29.83,SSW,195,8.9,12.1,85,0.00,,,0.00,0.0,meteobridge,2013-09-17 09:33:00,
2013-09-17 02:38:00,60.8,56.3,29.83,SSW,200,8.9,8.9,85,0.00,,,0.00,0.0,meteobridge,2013-09-17 09:38:00,
2013-09-17 02:43:00,60.8,56.3,29.83,SW,220,10.1,11.0,85,0.00,,,0.00,0.0,meteobridge,2013-09-17 09:43:00,
2013-09-17 02:48:00,60.6,55.8,29.83,South,190,8.1,16.1,84,0.00,,,0.00,0.0,meteobridge,2013-09-17 09:48:00,
2013-09-17 02:53:00,60.6,56.1,29.83,South,189,10.1,10.1,85,0.00,,,0.00,0.0,meteobridge,2013-09-17 09:53:00,
2013-09-17 02:58:00,60.6,56.1,29.83,SSW,204,6.9,12.1,85,0.00,,,0.00,0.0,meteobridge,2013-09-17 09:58:00,
2013-09-17 03:03:00,60.6,56.1,29.83,SSW,211,11.0,13.0,85,0.00,,,0.00,0.0,meteobridge,2013-09-17 10:03:00,
2013-09-17 03:08:00,60.6,56.1,29.82,SW,214,12.1,12.1,85,0.00,,,0.00,0.0,meteobridge,2013-09-17 10:08:00,
2013-09-17 03:13:00,60.4,55.9,29.82,West,270,4.0,11.0,85,0.00,,,0.00,0.0,meteobridge,2013-09-17 10:13:00,
2013-09-17 03:18:00,60.4,55.9,29.82,SW,216,0.9,8.1,85,0.00,,,0.00,0.0,meteobridge,2013-09-17 10:18:00,
2013-09-17 03:23:00,60.4,55.9,29.82,WSW,237,4.9,8.9,85,0.00,,,0.00,0.0,meteobridge,2013-09-17 10:23:00,
2013-09-17 03:28:00,60.4,55.9,29.82,SSE,168,4.9,6.9,85,0.00,,,0.00,0.0,meteobridge,2013-09-17 10:28:00,
2013-09-17 03:33:00,60.4,55.9,29.82,WSW,248,10.1,14.1,85,0.00,,,0.00,0.0,meteobridge,2013-09-17 10:33:00,
2013-09-17 03:38:00,60.4,55.9,29.82,SSW,192,4.0,4.9,85,0.00,,,0.00,0.0,meteobridge,2013-09-17 10:38:00,
2013-09-17 03:43:00,60.4,55.9,29.82,SW,231,2.9,8.1,85,0.00,,,0.00,0.0,meteobridge,2013-09-17 10:43:00,
2013-09-17 03:48:00,60.4,55.9,29.82,WSW,245,8.9,8.9,85,0.00,,,0.00,0.0,meteobridge,2013-09-17 10:48:00,
2013-09-17 03:53:00,60.4,55.9,29.82,SSW,201,0.9,8.1,85,0.00,,,0.00,0.0,meteobridge,2013-09-17 10:53:00,
2013-09-17 03:58:00,60.4,55.9,29.82,SW,228,4.9,10.1,85,0.00,,,0.00,0.0,meteobridge,2013-09-17 10:58:00,
2013-09-17 04:03:00,60.4,55.9,29.82,SSE,165,0.9,6.9,85,0.00,,,0.00,0.0,meteobridge,2013-09-17 11:03:00,
2013-09-17 04:08:00,60.4,55.9,29.82,SSE,166,6.0,8.9,85,0.00,,,0.00,0.0,meteobridge,2013-09-17 11:08:00,
2013-09-17 04:13:00,60.4,55.6,29.81,SSW,197,2.9,8.1,84,0.00,,,0.00,0.0,meteobridge,2013-09-17 11:13:00,
2013-09-17 04:18:00,60.4,55.6,29.82,SSE,161,11.0,12.1,84,0.00,,,0.00,0.0,meteobridge,2013-09-17 11:18:00,
2013-09-17 04:23:00,60.4,55.9,29.82,SSE,168,6.0,6.9,85,0.00,,,0.00,0.0,meteobridge,2013-09-17 11:23:00,
2013-09-17 04:28:00,60.4,55.6,29.82,South,180,4.9,8.9,84,0.00,,,0.00,0.0,meteobridge,2013-09-17 11:28:00,
2013-09-17 04:33:00,60.3,55.4,29.82,SSE,168,8.9,12.1,84,0.00,,,0.00,0.0,meteobridge,2013-09-17 11:33:00,
2013-09-17 04:38:00,60.3,55.8,29.82,SE,144,2.0,8.9,85,0.00,,,0.00,0.0,meteobridge,2013-09-17 11:38:00,
2013-09-17 04:43:00,60.3,55.8,29.82,SSW,207,2.0,8.1,85,0.00,,,0.00,0.0,meteobridge,2013-09-17 11:43:00,
2013-09-17 04:48:00,60.3,55.8,29.82,WSW,237,2.0,6.9,85,0.00,,,0.00,0.0,meteobridge,2013-09-17 11:48:00,
2013-09-17 04:53:00,60.1,55.6,29.82,SSW,212,6.0,11.0,85,0.00,,,0.00,0.0,meteobridge,2013-09-17 11:53:00,
2013-09-17 04:58:00,60.1,55.6,29.81,SW,235,6.0,14.1,85,0.00,,,0.00,0.0,meteobridge,2013-09-17 11:58:00,
2013-09-17 05:03:00,60.1,55.9,29.81,WSW,247,6.9,13.0,86,0.00,,,0.00,0.0,meteobridge,2013-09-17 12:03:00,
2013-09-17 05:08:00,59.9,55.8,29.81,SSW,206,6.0,15.0,86,0.00,,,0.00,0.0,meteobridge,2013-09-17 12:08:00,
2013-09-17 05:13:00,59.9,55.8,29.82,SSW,193,8.1,15.0,86,0.00,,,0.00,0.0,meteobridge,2013-09-17 12:13:00,
2013-09-17 05:18:00,59.9,55.8,29.82,SW,227,8.1,11.0,86,0.00,,,0.00,0.0,meteobridge,2013-09-17 12:18:00,
2013-09-17 05:23:00,59.9,55.4,29.82,WSW,257,12.1,19.0,85,0.00,,,0.00,0.0,meteobridge,2013-09-17 12:23:00,
2013-09-17 05:28:00,59.9,55.8,29.82,SSW,199,6.9,11.0,86,0.00,,,0.00,0.0,meteobridge,2013-09-17 12:28:00,
2013-09-17 05:33:00,59.9,55.8,29.82,SW,221,4.9,15.0,86,0.00,,,0.00,0.0,meteobridge,2013-09-17 12:33:00,
2013-09-17 05:38:00,60.1,55.9,29.82,SW,216,6.0,14.1,86,0.00,,,0.00,0.0,meteobridge,2013-09-17 12:38:00,
2013-09-17 05:43:00,60.1,55.6,29.82,SW,226,4.9,17.0,85,0.00,,,0.00,0.0,meteobridge,2013-09-17 12:43:00,
2013-09-17 05:48:00,60.1,55.6,29.82,SW,231,6.9,12.1,85,0.00,,,0.00,0.0,meteobridge,2013-09-17 12:48:00,
2013-09-17 05:53:00,59.9,55.4,29.83,West,261,2.0,11.0,85,0.00,,,0.00,0.0,meteobridge,2013-09-17 12:53:00,
2013-09-17 05:58:00,59.9,55.4,29.82,WSW,243,11.0,17.9,85,0.00,,,0.00,0.0,meteobridge,2013-09-17 12:58:00,
2013-09-17 06:03:00,59.9,55.4,29.83,SW,235,13.0,14.1,85,0.00,,,0.00,0.0,meteobridge,2013-09-17 13:03:00,
2013-09-17 06:08:00,59.9,55.4,29.83,WNW,289,2.0,6.0,85,0.00,,,0.00,0.0,meteobridge,2013-09-17 13:08:00,
2013-09-17 06:13:00,59.9,55.4,29.83,South,179,2.9,8.1,85,0.00,,,0.00,0.0,meteobridge,2013-09-17 13:13:00,
2013-09-17 06:18:00,59.9,55.4,29.83,NNE,29,4.0,4.0,85,0.00,,,0.00,0.0,meteobridge,2013-09-17 13:18:00,
2013-09-17 06:24:00,59.9,55.8,29.83,SE,137,0.9,6.9,86,0.00,,,0.00,0.0,meteobridge,2013-09-17 13:24:00,
2013-09-17 06:29:00,59.9,55.8,29.83,SE,144,6.0,8.9,86,0.00,,,0.00,0.0,meteobridge,2013-09-17 13:29:00,
2013-09-17 06:34:00,59.9,55.4,29.84,South,180,2.9,12.1,85,0.00,,,0.00,0.0,meteobridge,2013-09-17 13:34:00,
2013-09-17 06:39:00,59.9,55.4,29.83,ESE,121,4.0,8.9,85,0.00,,,0.00,0.0,meteobridge,2013-09-17 13:39:00,
2013-09-17 06:44:00,59.9,55.8,29.83,SSW,206,2.0,8.1,86,0.00,,,0.00,0.0,meteobridge,2013-09-17 13:44:00,
2013-09-17 06:49:00,59.9,55.8,29.84,ESE,114,6.0,6.9,86,0.00,,,0.00,0.0,meteobridge,2013-09-17 13:49:00,
2013-09-17 06:54:00,59.7,55.6,29.84,ESE,119,2.9,11.0,86,0.00,,,0.00,0.0,meteobridge,2013-09-17 13:54:00,
2013-09-17 06:59:00,59.7,55.6,29.84,SSW,208,8.9,8.9,86,0.00,,,0.00,0.0,meteobridge,2013-09-17 13:59:00,
2013-09-17 07:04:00,59.7,55.8,29.84,SSW,210,11.0,11.0,87,0.00,,,0.00,0.0,meteobridge,2013-09-17 14:04:00,
2013-09-17 07:09:00,59.7,55.6,29.84,WNW,286,2.0,6.9,86,0.00,,,0.00,5.0,meteobridge,2013-09-17 14:09:00,
2013-09-17 07:14:00,59.7,55.6,29.84,SW,217,0.9,2.9,86,0.00,,,0.00,5.0,meteobridge,2013-09-17 14:14:00,
2013-09-17 07:19:00,59.9,55.9,29.84,SSE,156,2.9,6.0,87,0.00,,,0.00,9.0,meteobridge,2013-09-17 14:19:00,
2013-09-17 07:24:00,59.9,55.8,29.85,WSW,242,0.9,6.0,86,0.00,,,0.00,11.0,meteobridge,2013-09-17 14:24:00,
2013-09-17 07:29:00,59.9,55.8,29.85,SW,231,2.0,6.9,86,0.00,,,0.00,11.0,meteobridge,2013-09-17 14:29:00,
2013-09-17 07:34:00,60.1,55.9,29.85,SW,234,0.9,2.9,86,0.00,,,0.00,14.0,meteobridge,2013-09-17 14:34:00,
2013-09-17 07:39:00,60.1,55.9,29.85,South,180,2.0,8.9,86,0.00,,,0.00,16.0,meteobridge,2013-09-17 14:39:00,
2013-09-17 07:44:00,60.1,55.9,29.85,South,181,2.0,8.9,86,0.00,,,0.00,21.0,meteobridge,2013-09-17 14:44:00,
2013-09-17 07:49:00,60.3,56.1,29.85,SSW,210,6.9,8.1,86,0.00,,,0.00,28.0,meteobridge,2013-09-17 14:49:00,
2013-09-17 07:54:00,60.3,56.1,29.85,SSW,208,4.0,8.1,86,0.00,,,0.00,46.0,meteobridge,2013-09-17 14:54:00,
2013-09-17 07:59:00,60.3,55.8,29.85,WSW,249,4.0,6.9,85,0.00,,,0.00,62.0,meteobridge,2013-09-17 14:59:00,
2013-09-17 08:04:00,60.4,55.6,29.84,South,179,10.1,13.0,84,0.00,,,0.00,107.0,meteobridge,2013-09-17 15:04:00,
2013-09-17 08:09:00,60.4,55.6,29.84,SW,235,2.0,10.1,84,0.00,,,0.00,86.0,meteobridge,2013-09-17 15:09:00,
2013-09-17 08:14:00,60.4,55.6,29.85,WSW,258,6.9,11.0,84,0.00,,,0.00,56.0,meteobridge,2013-09-17 15:14:00,
2013-09-17 08:19:00,60.4,55.6,29.85,SW,216,4.9,10.1,84,0.00,,,0.00,65.0,meteobridge,2013-09-17 15:19:00,
2013-09-17 08:24:00,60.6,55.8,29.85,SSW,194,10.1,14.1,84,0.00,,,0.00,107.0,meteobridge,2013-09-17 15:24:00,
2013-09-17 08:29:00,61.0,56.5,29.85,SSW,195,6.0,11.0,85,0.00,,,0.00,371.0,meteobridge,2013-09-17 15:29:00,
2013-09-17 08:34:00,61.9,56.7,29.85,SSW,203,6.0,8.9,83,0.00,,,0.00,432.0,meteobridge,2013-09-17 15:34:00,
2013-09-17 08:40:00,62.4,56.5,29.85,South,181,4.9,8.1,81,0.00,,,0.00,149.0,meteobridge,2013-09-17 15:40:00,
2013-09-17 08:45:00,62.4,56.1,29.85,SSW,192,4.9,10.1,80,0.00,,,0.00,123.0,meteobridge,2013-09-17 15:45:00,
2013-09-17 08:50:00,62.1,55.8,29.85,SSW,207,8.9,14.1,80,0.00,,,0.00,172.0,meteobridge,2013-09-17 15:50:00,
2013-09-17 08:55:00,61.5,55.6,29.85,SSW,209,8.9,12.1,81,0.00,,,0.00,239.0,meteobridge,2013-09-17 15:55:00,
2013-09-17 09:00:00,61.5,55.9,29.85,West,267,4.0,10.1,82,0.00,,,0.00,107.0,meteobridge,2013-09-17 16:00:00,
2013-09-17 09:05:00,61.5,55.9,29.86,SW,220,8.1,8.9,82,0.00,,,0.00,121.0,meteobridge,2013-09-17 16:05:00,
2013-09-17 09:10:00,61.3,55.8,29.86,SW,214,2.9,8.9,82,0.00,,,0.00,116.0,meteobridge,2013-09-17 16:10:00,
2013-09-17 09:15:00,61.3,56.1,29.86,SSE,158,4.0,8.9,83,0.00,,,0.00,141.0,meteobridge,2013-09-17 16:15:00,
2013-09-17 09:20:00,61.3,56.1,29.86,South,170,8.1,11.0,83,0.00,,,0.00,172.0,meteobridge,2013-09-17 16:20:00,
2013-09-17 09:25:00,61.7,56.1,29.86,SW,216,6.0,13.0,82,0.00,,,0.00,209.0,meteobridge,2013-09-17 16:25:00,
2013-09-17 09:30:00,62.4,56.1,29.86,WSW,247,6.9,11.0,80,0.00,,,0.00,299.0,meteobridge,2013-09-17 16:30:00,
2013-09-17 09:35:00,63.3,56.7,29.86,South,172,6.9,10.1,79,0.00,,,0.00,267.0,meteobridge,2013-09-17 16:35:00,
2013-09-17 09:40:00,63.9,56.8,29.86,SW,214,6.9,8.9,78,0.00,,,0.00,267.0,meteobridge,2013-09-17 16:40:00,
2013-09-17 09:45:00,64.0,57.0,29.86,SSE,164,6.9,8.1,78,0.00,,,0.00,171.0,meteobridge,2013-09-17 16:45:00,
2013-09-17 09:50:00,64.2,56.8,29.86,SW,223,4.0,11.0,77,0.00,,,0.00,621.0,meteobridge,2013-09-17 16:50:00,
2013-09-17 09:55:00,64.4,56.7,29.87,SW,236,8.9,10.1,76,0.00,,,0.00,571.0,meteobridge,2013-09-17 16:55:00,
2013-09-17 10:00:00,64.9,56.5,29.86,South,176,8.9,10.1,74,0.00,,,0.00,654.0,meteobridge,2013-09-17 17:00:00,
2013-09-17 10:05:00,65.3,56.8,29.87,SW,235,4.0,10.1,74,0.00,,,0.00,677.0,meteobridge,2013-09-17 17:05:00,
2013-09-17 10:10:00,65.7,56.8,29.87,SW,214,10.1,11.0,73,0.00,,,0.00,417.0,meteobridge,2013-09-17 17:10:00,
2013-09-17 10:15:00,66.0,57.2,29.87,South,174,2.0,16.1,73,0.00,,,0.00,633.0,meteobridge,2013-09-17 17:15:00,
2013-09-17 10:20:00,65.8,57.0,29.87,SW,233,6.0,8.9,73,0.00,,,0.00,621.0,meteobridge,2013-09-17 17:20:00,
2013-09-17 10:25:00,66.6,56.8,29.86,SSW,201,6.9,10.1,71,0.00,,,0.00,619.0,meteobridge,2013-09-17 17:25:00,
2013-09-17 10:30:00,66.7,57.0,29.86,SW,226,10.1,13.0,71,0.00,,,0.00,633.0,meteobridge,2013-09-17 17:30:00,
2013-09-17 10:35:00,67.6,57.0,29.87,SSW,206,2.9,6.0,69,0.00,,,0.00,643.0,meteobridge,2013-09-17 17:35:00,
2013-09-17 10:40:00,68.4,57.7,29.87,SSW,212,4.0,8.9,69,0.00,,,0.00,657.0,meteobridge,2013-09-17 17:40:00,
2013-09-17 10:45:00,68.4,57.4,29.86,SW,219,4.0,6.9,68,0.00,,,0.00,668.0,meteobridge,2013-09-17 17:45:00,
2013-09-17 10:50:00,69.1,57.7,29.87,WSW,241,6.0,8.1,67,0.00,,,0.00,679.0,meteobridge,2013-09-17 17:50:00,
2013-09-17 10:55:00,69.1,57.2,29.86,South,183,10.1,12.1,66,0.00,,,0.00,693.0,meteobridge,2013-09-17 17:55:00,
2013-09-17 11:00:00,69.3,58.3,29.86,SSW,199,6.9,11.0,68,0.00,,,0.00,701.0,meteobridge,2013-09-17 18:00:00,
2013-09-17 11:05:00,69.6,57.4,29.86,South,187,4.0,8.9,65,0.00,,,0.00,712.0,meteobridge,2013-09-17 18:05:00,
2013-09-17 11:10:00,70.5,57.4,29.86,SSW,194,6.9,11.0,63,0.00,,,0.00,721.0,meteobridge,2013-09-17 18:10:00,
2013-09-17 11:15:00,70.7,57.0,29.86,SSW,200,6.9,10.1,62,0.00,,,0.00,726.0,meteobridge,2013-09-17 18:15:00,
2013-09-17 11:20:00,70.9,57.7,29.86,WSW,238,8.9,8.9,63,0.00,,,0.00,742.0,meteobridge,2013-09-17 18:20:00,
2013-09-17 11:25:00,71.2,57.6,29.86,South,172,6.0,11.0,62,0.00,,,0.00,745.0,meteobridge,2013-09-17 18:25:00,
2013-09-17 11:30:00,71.1,56.5,29.86,SSW,192,6.9,13.0,60,0.00,,,0.00,756.0,meteobridge,2013-09-17 18:30:00,
2013-09-17 11:35:00,71.1,56.5,29.86,WSW,241,4.0,12.1,60,0.00,,,0.00,765.0,meteobridge,2013-09-17 18:35:00,
2013-09-17 11:40:00,71.1,56.8,29.86,WSW,254,4.9,13.0,61,0.00,,,0.00,772.0,meteobridge,2013-09-17 18:40:00,
2013-09-17 11:45:00,70.9,56.3,29.86,SW,235,4.0,13.0,60,0.00,,,0.00,779.0,meteobridge,2013-09-17 18:45:00,
2013-09-17 11:50:00,71.2,57.9,29.86,SSW,208,2.9,8.1,63,0.00,,,0.00,788.0,meteobridge,2013-09-17 18:50:00,
2013-09-17 11:55:00,72.1,57.0,29.85,WSW,251,8.1,10.1,59,0.00,,,0.00,793.0,meteobridge,2013-09-17 18:55:00,
2013-09-17 12:00:00,72.0,56.8,29.85,South,183,4.0,12.1,59,0.00,,,0.00,795.0,meteobridge,2013-09-17 19:00:00,
2013-09-17 12:05:00,72.9,56.7,29.85,SSW,196,4.9,8.1,57,0.00,,,0.00,800.0,meteobridge,2013-09-17 19:05:00,
2013-09-17 12:10:00,72.9,57.2,29.85,SW,230,4.9,6.0,58,0.00,,,0.00,812.0,meteobridge,2013-09-17 19:10:00,
2013-09-17 12:15:00,73.0,56.8,29.85,WSW,246,13.0,13.0,57,0.00,,,0.00,812.0,meteobridge,2013-09-17 19:15:00,
2013-09-17 12:20:00,72.5,57.4,29.85,SW,218,4.9,10.1,59,0.00,,,0.00,816.0,meteobridge,2013-09-17 19:20:00,
2013-09-17 12:25:00,72.7,57.0,29.85,WSW,257,10.1,10.1,58,0.00,,,0.00,823.0,meteobridge,2013-09-17 19:25:00,
2013-09-17 12:30:00,72.3,57.2,29.85,WSW,249,13.0,15.0,59,0.00,,,0.00,823.0,meteobridge,2013-09-17 19:30:00,
2013-09-17 12:35:00,72.9,57.2,29.85,WSW,249,10.1,11.0,58,0.00,,,0.00,826.0,meteobridge,2013-09-17 19:35:00,
2013-09-17 12:40:00,73.2,57.6,29.85,WSW,238,8.9,10.1,58,0.00,,,0.00,830.0,meteobridge,2013-09-17 19:40:00,
2013-09-17 12:46:00,73.0,56.8,29.85,SW,223,13.0,14.1,57,0.00,,,0.00,835.0,meteobridge,2013-09-17 19:46:00,
2013-09-17 12:51:00,72.7,57.6,29.85,South,187,4.9,13.0,59,0.00,,,0.00,833.0,meteobridge,2013-09-17 19:51:00,
2013-09-17 12:56:00,72.9,56.7,29.85,SW,233,11.0,13.0,57,0.00,,,0.00,838.0,meteobridge,2013-09-17 19:56:00,
2013-09-17 13:01:00,72.5,56.5,29.84,WSW,242,11.0,16.1,57,0.00,,,0.00,835.0,meteobridge,2013-09-17 20:01:00,
2013-09-17 13:06:00,72.9,55.8,29.84,SSW,199,6.0,13.0,55,0.00,,,0.00,835.0,meteobridge,2013-09-17 20:06:00,
2013-09-17 13:11:00,73.0,55.4,29.84,SSW,208,10.1,21.0,54,0.00,,,0.00,842.0,meteobridge,2013-09-17 20:11:00,
2013-09-17 13:16:00,72.9,55.8,29.84,SSW,208,6.9,13.0,55,0.00,,,0.00,835.0,meteobridge,2013-09-17 20:16:00,
2013-09-17 13:21:00,72.7,55.0,29.84,SSW,199,6.9,17.9,54,0.00,,,0.00,835.0,meteobridge,2013-09-17 20:21:00,
2013-09-17 13:26:00,73.0,55.9,29.84,NW,311,4.9,19.0,55,0.00,,,0.00,828.0,meteobridge,2013-09-17 20:26:00,
2013-09-17 13:31:00,73.8,56.1,29.84,WSW,240,8.1,15.0,54,0.00,,,0.00,831.0,meteobridge,2013-09-17 20:31:00,
2013-09-17 13:36:00,73.9,55.8,29.84,SSW,203,11.0,14.1,53,0.00,,,0.00,830.0,meteobridge,2013-09-17 20:36:00,
2013-09-17 13:41:00,73.6,55.9,29.83,SSW,208,10.1,12.1,54,0.00,,,0.00,824.0,meteobridge,2013-09-17 20:41:00,
2013-09-17 13:46:00,73.8,54.5,29.84,SSW,208,6.9,15.0,51,0.00,,,0.00,824.0,meteobridge,2013-09-17 20:46:00,
2013-09-17 13:51:00,73.8,55.6,29.84,SSW,210,6.9,17.0,53,0.00,,,0.00,814.0,meteobridge,2013-09-17 20:51:00,
2013-09-17 13:56:00,74.1,55.9,29.84,SSW,202,2.9,12.1,53,0.00,,,0.00,812.0,meteobridge,2013-09-17 20:56:00,
2013-09-17 14:01:00,74.3,55.0,29.84,SSW,208,8.9,14.1,51,0.00,,,0.00,810.0,meteobridge,2013-09-17 21:01:00,
2013-09-17 14:06:00,74.3,54.5,29.84,West,280,10.1,15.0,50,0.00,,,0.00,802.0,meteobridge,2013-09-17 21:06:00,
2013-09-17 14:11:00,74.1,54.3,29.83,WSW,249,8.1,14.1,50,0.00,,,0.00,795.0,meteobridge,2013-09-17 21:11:00,
2013-09-17 14:16:00,74.8,55.0,29.84,WSW,242,4.9,13.0,50,0.00,,,0.00,786.0,meteobridge,2013-09-17 21:16:00,
2013-09-17 14:21:00,74.8,54.3,29.84,SSW,205,10.1,13.0,49,0.00,,,0.00,777.0,meteobridge,2013-09-17 21:21:00,
2013-09-17 14:26:00,74.5,54.7,29.84,SSW,203,8.1,14.1,50,0.00,,,0.00,773.0,meteobridge,2013-09-17 21:26:00,
2013-09-17 14:31:00,75.0,55.0,29.84,SSW,204,6.0,14.1,50,0.00,,,0.00,765.0,meteobridge,2013-09-17 21:31:00,
2013-09-17 14:36:00,74.8,53.8,29.84,SW,234,4.0,14.1,48,0.00,,,0.00,761.0,meteobridge,2013-09-17 21:36:00,
2013-09-17 14:41:00,74.5,54.7,29.84,SW,225,6.9,12.1,50,0.00,,,0.00,751.0,meteobridge,2013-09-17 21:41:00,
2013-09-17 14:46:00,74.7,55.4,29.83,WSW,237,11.0,12.1,51,0.00,,,0.00,742.0,meteobridge,2013-09-17 21:46:00,
2013-09-17 14:51:00,74.7,54.3,29.83,West,264,8.9,10.1,49,0.00,,,0.00,729.0,meteobridge,2013-09-17 21:51:00,
2013-09-17 14:56:00,74.8,54.3,29.83,SW,222,4.9,10.1,49,0.00,,,0.00,721.0,meteobridge,2013-09-17 21:56:00,
2013-09-17 15:01:00,75.4,54.3,29.83,SSW,201,8.9,16.1,48,0.00,,,0.00,712.0,meteobridge,2013-09-17 22:01:00,
2013-09-17 15:06:00,75.2,54.7,29.83,SW,224,6.9,12.1,49,0.00,,,0.00,696.0,meteobridge,2013-09-17 22:06:00,
2013-09-17 15:11:00,74.7,54.3,29.83,SW,235,6.9,17.0,49,0.00,,,0.00,686.0,meteobridge,2013-09-17 22:11:00,
2013-09-17 15:16:00,74.3,55.0,29.83,South,190,6.0,12.1,51,0.00,,,0.00,677.0,meteobridge,2013-09-17 22:16:00,
2013-09-17 15:21:00,74.5,55.8,29.83,SW,222,6.0,13.0,52,0.00,,,0.00,668.0,meteobridge,2013-09-17 22:21:00,
2013-09-17 15:26:00,73.8,55.6,29.83,South,172,10.1,14.1,53,0.00,,,0.00,657.0,meteobridge,2013-09-17 22:26:00,
2013-09-17 15:31:00,73.6,55.9,29.83,South,185,8.1,10.1,54,0.00,,,0.00,647.0,meteobridge,2013-09-17 22:31:00,
2013-09-17 15:36:00,73.9,55.2,29.83,SSW,210,11.0,11.0,52,0.00,,,0.00,628.0,meteobridge,2013-09-17 22:36:00,
2013-09-17 15:41:00,73.9,55.2,29.83,SW,222,6.9,13.0,52,0.00,,,0.00,615.0,meteobridge,2013-09-17 22:41:00,
2013-09-17 15:46:00,73.9,55.8,29.83,SSW,193,2.9,8.1,53,0.00,,,0.00,603.0,meteobridge,2013-09-17 22:46:00,
2013-09-17 15:51:00,74.5,55.8,29.83,SSW,199,6.9,10.1,52,0.00,,,0.00,591.0,meteobridge,2013-09-17 22:51:00,
2013-09-17 15:56:00,74.5,55.8,29.83,South,186,4.9,11.0,52,0.00,,,0.00,577.0,meteobridge,2013-09-17 22:56:00,
2013-09-17 16:01:00,74.5,55.2,29.83,SSW,210,4.9,10.1,51,0.00,,,0.00,563.0,meteobridge,2013-09-17 23:01:00,
2013-09-17 16:06:00,74.5,55.8,29.83,SW,214,4.9,12.1,52,0.00,,,0.00,548.0,meteobridge,2013-09-17 23:06:00,
2013-09-17 16:11:00,74.5,55.8,29.83,SSW,194,6.0,11.0,52,0.00,,,0.00,534.0,meteobridge,2013-09-17 23:11:00,
2013-09-17 16:16:00,74.7,55.4,29.83,South,182,4.0,10.1,51,0.00,,,0.00,515.0,meteobridge,2013-09-17 23:16:00,
2013-09-17 16:21:00,74.5,55.8,29.83,South,171,6.9,8.9,52,0.00,,,0.00,496.0,meteobridge,2013-09-17 23:21:00,
2013-09-17 16:26:00,73.9,55.8,29.82,SSW,198,6.0,13.0,53,0.00,,,0.00,149.0,meteobridge,2013-09-17 23:26:00,
2013-09-17 16:31:00,73.8,56.1,29.82,West,260,6.9,11.0,54,0.00,,,0.00,54.0,meteobridge,2013-09-17 23:31:00,
2013-09-17 16:36:00,73.6,56.5,29.83,SSW,208,12.1,13.0,55,0.00,,,0.00,51.0,meteobridge,2013-09-17 23:36:00,
2013-09-17 16:41:00,73.2,56.7,29.83,South,188,8.1,8.1,56,0.00,,,0.00,49.0,meteobridge,2013-09-17 23:41:00,
2013-09-17 16:46:00,72.7,56.1,29.82,SSW,213,4.9,11.0,56,0.00,,,0.00,47.0,meteobridge,2013-09-17 23:46:00,
2013-09-17 16:51:00,72.3,56.3,29.82,SW,219,8.1,15.0,57,0.00,,,0.00,51.0,meteobridge,2013-09-17 23:51:00,
2013-09-17 16:56:00,72.0,55.9,29.82,SW,216,8.1,11.0,57,0.00,,,0.00,44.0,meteobridge,2013-09-17 23:56:00,
2013-09-17 17:01:00,71.6,56.5,29.83,SSW,195,8.1,11.0,59,0.00,,,0.00,98.0,meteobridge,2013-09-18 00:01:00,
2013-09-17 17:06:00,71.2,56.1,29.83,SW,222,6.0,13.0,59,0.00,,,0.00,42.0,meteobridge,2013-09-18 00:06:00,
2013-09-17 17:11:00,71.1,55.9,29.83,South,172,6.0,11.0,59,0.00,,,0.00,40.0,meteobridge,2013-09-18 00:11:00,
2013-09-17 17:16:00,70.7,55.6,29.83,South,185,4.0,13.0,59,0.00,,,0.00,40.0,meteobridge,2013-09-18 00:16:00,
2013-09-17 17:21:00,70.5,55.9,29.83,SW,221,2.0,6.9,60,0.00,,,0.00,65.0,meteobridge,2013-09-18 00:21:00,
2013-09-17 17:26:00,70.5,55.6,29.83,South,175,4.0,10.1,59,0.00,,,0.00,51.0,meteobridge,2013-09-18 00:26:00,
2013-09-17 17:31:00,70.5,55.9,29.83,SSW,205,6.0,10.1,60,0.00,,,0.00,40.0,meteobridge,2013-09-18 00:31:00,
2013-09-17 17:37:00,70.3,55.8,29.83,SW,230,6.9,11.0,60,0.00,,,0.00,37.0,meteobridge,2013-09-18 00:37:00,
2013-09-17 17:42:00,70.0,55.4,29.83,SSW,197,8.1,8.9,60,0.00,,,0.00,35.0,meteobridge,2013-09-18 00:42:00,
2013-09-17 17:47:00,69.8,55.8,29.83,SSW,202,4.9,8.9,61,0.00,,,0.00,33.0,meteobridge,2013-09-18 00:47:00,
2013-09-17 17:52:00,69.6,55.6,29.83,SW,223,4.0,6.0,61,0.00,,,0.00,33.0,meteobridge,2013-09-18 00:52:00,
2013-09-17 17:57:00,69.6,55.0,29.83,SSW,199,0.9,6.0,60,0.00,,,0.00,32.0,meteobridge,2013-09-18 00:57:00,
2013-09-17 18:02:00,69.4,55.4,29.83,SW,217,2.9,8.1,61,0.00,,,0.00,30.0,meteobridge,2013-09-18 01:02:00,
2013-09-17 18:07:00,69.3,55.2,29.83,West,271,4.0,8.1,61,0.00,,,0.00,30.0,meteobridge,2013-09-18 01:07:00,
2013-09-17 18:12:00,69.1,55.0,29.83,SW,218,2.9,6.9,61,0.00,,,0.00,28.0,meteobridge,2013-09-18 01:12:00,
2013-09-17 18:17:00,68.7,54.7,29.83,SW,226,4.0,6.0,61,0.00,,,0.00,26.0,meteobridge,2013-09-18 01:17:00,
2013-09-17 18:22:00,68.7,54.7,29.83,WSW,242,4.0,8.1,61,0.00,,,0.00,26.0,meteobridge,2013-09-18 01:22:00,
2013-09-17 18:27:00,68.5,55.0,29.83,SW,230,2.9,6.9,62,0.00,,,0.00,25.0,meteobridge,2013-09-18 01:27:00,
2013-09-17 18:32:00,68.4,54.9,29.83,WSW,246,4.0,8.9,62,0.00,,,0.00,23.0,meteobridge,2013-09-18 01:32:00,
2013-09-17 18:37:00,68.4,54.9,29.83,SSW,195,2.9,4.9,62,0.00,,,0.00,21.0,meteobridge,2013-09-18 01:37:00,
2013-09-17 18:42:00,68.2,55.0,29.83,SW,214,4.9,6.0,63,0.00,,,0.00,19.0,meteobridge,2013-09-18 01:42:00,
2013-09-17 18:47:00,68.2,55.0,29.83,South,186,4.9,8.1,63,0.00,,,0.00,16.0,meteobridge,2013-09-18 01:47:00,
2013-09-17 18:52:00,67.8,55.2,29.84,SSW,206,2.0,4.9,64,0.00,,,0.00,14.0,meteobridge,2013-09-18 01:52:00,
2013-09-17 18:57:00,67.6,55.4,29.84,SW,234,4.0,8.1,65,0.00,,,0.00,12.0,meteobridge,2013-09-18 01:57:00,
2013-09-17 19:02:00,67.5,55.2,29.83,SSW,203,4.9,4.9,65,0.00,,,0.00,9.0,meteobridge,2013-09-18 02:02:00,
2013-09-17 19:07:00,67.3,55.0,29.83,WSW,252,2.0,4.9,65,0.00,,,0.00,7.0,meteobridge,2013-09-18 02:07:00,
2013-09-17 19:12:00,66.9,55.2,29.83,SW,220,2.9,6.9,66,0.00,,,0.00,0.0,meteobridge,2013-09-18 02:12:00,
2013-09-17 19:17:00,66.6,54.9,29.83,WSW,253,8.1,8.9,66,0.00,,,0.00,0.0,meteobridge,2013-09-18 02:17:00,
2013-09-17 19:22:00,66.4,55.0,29.83,SW,233,4.0,6.9,67,0.00,,,0.00,0.0,meteobridge,2013-09-18 02:22:00,
2013-09-17 19:27:00,65.8,55.0,29.83,WSW,244,8.1,8.9,68,0.00,,,0.00,0.0,meteobridge,2013-09-18 02:27:00,
2013-09-17 19:32:00,65.7,54.9,29.83,WSW,255,2.9,6.0,68,0.00,,,0.00,0.0,meteobridge,2013-09-18 02:32:00,
2013-09-17 19:37:00,65.3,54.9,29.84,SW,236,2.0,8.9,69,0.00,,,0.00,0.0,meteobridge,2013-09-18 02:37:00,
2013-09-17 19:42:00,65.1,55.0,29.84,SSW,208,2.0,6.9,70,0.00,,,0.00,0.0,meteobridge,2013-09-18 02:42:00,
2013-09-17 19:47:00,64.9,54.9,29.84,SW,224,8.1,8.9,70,0.00,,,0.00,0.0,meteobridge,2013-09-18 02:47:00,
2013-09-17 19:52:00,64.8,55.6,29.84,SW,223,6.0,10.1,72,0.00,,,0.00,0.0,meteobridge,2013-09-18 02:52:00,
2013-09-17 19:57:00,64.6,55.4,29.84,SW,218,2.9,6.9,72,0.00,,,0.00,0.0,meteobridge,2013-09-18 02:57:00,
2013-09-17 20:02:00,64.2,55.4,29.84,SW,233,4.0,8.1,73,0.00,,,0.00,0.0,meteobridge,2013-09-18 03:02:00,
2013-09-17 20:07:00,64.0,55.6,29.84,West,265,0.9,2.9,74,0.00,,,0.00,0.0,meteobridge,2013-09-18 03:07:00,
2013-09-17 20:13:00,63.9,55.4,29.84,WSW,247,2.0,2.0,74,0.00,,,0.00,0.0,meteobridge,2013-09-18 03:13:00,
2013-09-17 20:18:00,63.9,55.0,29.85,WSW,247,0.9,0.9,73,0.00,,,0.00,0.0,meteobridge,2013-09-18 03:18:00,
2013-09-17 20:23:00,63.9,55.0,29.85,SW,225,2.0,2.9,73,0.00,,,0.00,0.0,meteobridge,2013-09-18 03:23:00,
2013-09-17 20:28:00,63.9,55.4,29.85,WSW,247,0.9,0.9,74,0.00,,,0.00,0.0,meteobridge,2013-09-18 03:28:00,
2013-09-17 20:33:00,63.9,55.4,29.85,South,184,0.9,2.0,74,0.00,,,0.00,0.0,meteobridge,2013-09-18 03:33:00,
2013-09-17 20:38:00,63.7,55.2,29.85,WSW,239,0.9,2.9,74,0.00,,,0.00,0.0,meteobridge,2013-09-18 03:38:00,
2013-09-17 20:43:00,63.7,54.9,29.86,SW,218,2.0,4.0,73,0.00,,,0.00,0.0,meteobridge,2013-09-18 03:43:00,
2013-09-17 20:48:00,63.5,54.3,29.86,SSW,208,2.0,6.0,72,0.00,,,0.00,0.0,meteobridge,2013-09-18 03:48:00,
2013-09-17 20:53:00,63.5,54.7,29.86,SW,228,2.9,4.0,73,0.00,,,0.00,0.0,meteobridge,2013-09-18 03:53:00,
2013-09-17 20:58:00,63.5,54.7,29.86,SW,219,2.0,4.9,73,0.00,,,0.00,0.0,meteobridge,2013-09-18 03:58:00,
2013-09-17 21:01:00,63.5,54.7,29.86,WSW,247,4.0,4.0,73,0.00,,,0.00,0.0,meteobridge,2013-09-18 04:01:00,
2013-09-17 21:02:00,63.5,54.7,29.86,SW,224,0.9,4.0,73,0.00,,,0.00,0.0,meteobridge,2013-09-18 04:02:00,
2013-09-17 21:07:00,63.3,54.5,29.85,SSW,207,4.0,4.0,73,0.00,,,0.00,0.0,meteobridge,2013-09-18 04:07:00,
2013-09-17 21:12:00,63.3,54.5,29.86,WSW,237,0.0,2.0,73,0.00,,,0.00,0.0,meteobridge,2013-09-18 04:12:00,
2013-09-17 21:17:00,63.1,54.3,29.86,WNW,293,0.9,2.0,73,0.00,,,0.00,0.0,meteobridge,2013-09-18 04:17:00,
2013-09-17 21:22:00,63.1,54.7,29.86,WNW,301,0.9,2.0,74,0.00,,,0.00,0.0,meteobridge,2013-09-18 04:22:00,
2013-09-17 21:27:00,63.0,54.9,29.87,WNW,302,0.0,2.9,75,0.00,,,0.00,0.0,meteobridge,2013-09-18 04:27:00,
2013-09-17 21:32:00,62.8,54.7,29.86,WNW,287,0.9,2.0,75,0.00,,,0.00,0.0,meteobridge,2013-09-18 04:32:00,
2013-09-17 21:37:00,62.6,54.9,29.86,NW,312,2.0,2.0,76,0.00,,,0.00,0.0,meteobridge,2013-09-18 04:37:00,
2013-09-17 21:42:00,62.4,54.7,29.87,NNW,335,0.9,2.0,76,0.00,,,0.00,0.0,meteobridge,2013-09-18 04:42:00,
2013-09-17 21:47:00,62.2,54.5,29.87,NNW,335,0.0,0.9,76,0.00,,,0.00,0.0,meteobridge,2013-09-18 04:47:00,
2013-09-17 21:52:00,62.2,54.5,29.87,North,4,0.9,2.0,76,0.00,,,0.00,0.0,meteobridge,2013-09-18 04:52:00,
2013-09-17 21:58:00,62.1,54.7,29.87,NNW,328,2.0,2.9,77,0.00,,,0.00,0.0,meteobridge,2013-09-18 04:58:00,
2013-09-17 22:03:00,61.9,54.9,29.87,NW,326,0.0,0.9,78,0.00,,,0.00,0.0,meteobridge,2013-09-18 05:03:00,
2013-09-17 22:08:00,61.9,54.9,29.87,NW,326,0.0,0.9,78,0.00,,,0.00,0.0,meteobridge,2013-09-18 05:08:00,
2013-09-17 22:13:00,61.7,54.9,29.87,NW,326,0.0,0.9,78,0.00,,,0.00,0.0,meteobridge,2013-09-18 05:13:00,
2013-09-17 22:18:00,61.5,54.7,29.87,NW,326,0.0,0.0,78,0.00,,,0.00,0.0,meteobridge,2013-09-18 05:18:00,
2013-09-17 22:23:00,61.3,54.5,29.87,NW,326,0.0,0.9,78,0.00,,,0.00,0.0,meteobridge,2013-09-18 05:23:00,
2013-09-17 22:28:00,61.2,54.7,29.87,NW,326,0.9,0.9,79,0.00,,,0.00,0.0,meteobridge,2013-09-18 05:28:00,
2013-09-17 22:31:00,61.2,54.7,29.87,NW,326,0.0,0.9,79,0.00,,,0.00,0.0,meteobridge,2013-09-18 05:31:00,
2013-09-17 22:36:00,61.0,54.5,29.87,NW,326,0.9,0.9,79,0.00,,,0.00,0.0,meteobridge,2013-09-18 05:36:00,
2013-09-17 22:41:00,60.8,54.3,29.87,NW,326,0.9,2.0,79,0.00,,,0.00,0.0,meteobridge,2013-09-18 05:41:00,
2013-09-17 22:46:00,60.6,54.5,29.87,NW,326,0.0,0.0,80,0.00,,,0.00,0.0,meteobridge,2013-09-18 05:46:00,
2013-09-17 22:52:00,60.4,54.3,29.87,NW,326,0.0,0.9,80,0.00,,,0.00,0.0,meteobridge,2013-09-18 05:52:00,
2013-09-17 22:57:00,60.3,54.1,29.87,NW,326,0.0,0.0,80,0.00,,,0.00,0.0,meteobridge,2013-09-18 05:57:00,
2013-09-17 23:02:00,60.1,54.0,29.87,NW,326,0.0,0.9,80,0.00,,,0.00,0.0,meteobridge,2013-09-18 06:02:00,
2013-09-17 23:07:00,59.9,54.1,29.86,NW,326,0.0,0.0,81,0.00,,,0.00,0.0,meteobridge,2013-09-18 06:07:00,
2013-09-17 23:13:00,59.7,54.0,29.86,NW,326,0.0,0.0,81,0.00,,,0.00,0.0,meteobridge,2013-09-18 06:13:00,
2013-09-17 23:18:00,59.5,53.4,29.87,NW,326,0.0,0.9,80,0.00,,,0.00,0.0,meteobridge,2013-09-18 06:18:00,
2013-09-17 23:23:00,59.4,53.6,29.86,NW,326,0.0,0.9,81,0.00,,,0.00,0.0,meteobridge,2013-09-18 06:23:00,
2013-09-17 23:28:00,59.4,53.8,29.87,NW,326,0.0,0.0,82,0.00,,,0.00,0.0,meteobridge,2013-09-18 06:28:00,
2013-09-17 23:34:00,59.2,53.6,29.87,NW,326,0.0,0.0,82,0.00,,,0.00,0.0,meteobridge,2013-09-18 06:34:00,
2013-09-17 23:39:00,59.0,53.8,29.87,NW,326,0.9,0.9,83,0.00,,,0.00,0.0,meteobridge,2013-09-18 06:39:00,
2013-09-17 23:44:00,58.8,53.6,29.87,NW,326,0.0,0.9,83,0.00,,,0.00,0.0,meteobridge,2013-09-18 06:44:00,
2013-09-17 23:49:00,58.6,53.4,29.87,NW,326,0.9,0.9,83,0.00,,,0.00,0.0,meteobridge,2013-09-18 06:49:00,
2013-09-17 23:54:00,58.6,53.4,29.87,NW,326,0.0,0.9,83,0.00,,,0.00,0.0,meteobridge,2013-09-18 06:54:00,
2013-09-17 23:59:00,58.5,53.2,29.87,NW,326,0.9,0.9,83,0.00,,,0.00,0.0,meteobridge,2013-09-18 06:59:00,